Fairbanks, AK

3:20 AM AKDT on September 21, 2017 (GMT -0800)
Fairbanks International

Weather History for PAFA - August, 2013

Change the Weather History Date:

Wednesday, August 21, 2013

  Actual Average Record
Temperature  
Mean Temperature 55 °F 55 °F  
Max Temperature 63 °F 65 °F 87 °F (1977)
Min Temperature 47 °F 45 °F 30 °F (1931)
Degree Days  
Heating Degree Days 10 10  
Month to date heating degree days 57 161  
Since 1 June heating degree days 197 429  
Since 1 July heating degree days 126 269  
Cooling Degree Days 0 0  
Month to date cooling degree days 24 0  
Year to date cooling degree days 226 55  
Since 1 June cooling degree days 213 54  
Growing Degree Days 4 (Base 50)    
Moisture  
Dew Point 44 °F    
Average Humidity 72    
Maximum Humidity 93    
Minimum Humidity 38    
Precipitation  
Precipitation 0.01 in 0.06 in 1.01 in (1916)
Month to date precipitation 1.21 1.34  
Year to date precipitation 4.99 7.03  
Snow  
Snow 0.00 in 0.00 in 0.00 in (2002)
Month to date snowfall 0.0 0.0  
Since 1 June snowfall 0.0 0.0  
Since 1 July snowfall 0.0 0.0  
Snow Depth 0.00 in    
Sea Level Pressure  
Sea Level Pressure 29.77 in    
Wind  
Wind Speed 2 mph (East)    
Max Wind Speed 8 mph    
Max Gust Speed -    
Visibility 9 miles    
Events Rain    
T = Trace of Precipitation, MM = Missing Value Source: NWS Daily Summary

Daily Weather History Graph

Daily Weather History Graph

Search for Another Location

Airport or City:

Trip Planner

Search our weather history database for the weather conditions in past years. The results will help you decide how hot, cold, wet, or windy it might be!

Date:

Astronomy

Aug. 21, 2013 Rise Set
Actual Time 5:58 AM AKDT 9:47 PM AKDT
Civil Twilight 4:56 AM AKDT 10:49 PM AKDT
Nautical Twilight 3:07 AM AKDT 12:33 AM AKDT
Astronomical Twilight Sun does not set Sun does not set
Moon 9:06 PM AKDT 7:32 AM AKDT
Length of Visible Light 17h 52m
Length of Day
15h 49m
Full, 99% of the Moon is Illuminated
Aug 21
Full
Aug 28
Last Quarter
Sep 5
New
Sep 12
First Quarter
Sep 19
Full

Hourly Weather History & Observations

Time (AKDT) Temp. Dew Point Humidity Pressure Visibility Wind Dir Wind Speed Gust Speed Precip Events Conditions
12:53 AM 48.9 °F 46.0 °F 90% 29.79 in 10.0 mi Calm Calm - N/A   Mostly Cloudy
1:15 AM 48.9 °F 46.0 °F 90% 29.78 in 10.0 mi Calm Calm - N/A   Mostly Cloudy
1:53 AM 48.9 °F 46.9 °F 93% 29.80 in 4.0 mi Calm Calm - N/A   Mostly Cloudy
2:53 AM 48.9 °F 46.0 °F 90% 29.80 in 6.0 mi East 4.6 mph - 0.00 in   Mostly Cloudy
3:53 AM 48.0 °F 46.0 °F 93% 29.80 in 6.0 mi Calm Calm - 0.01 in Rain Light Rain
4:53 AM 48.0 °F 46.0 °F 93% 29.81 in 9.0 mi Calm Calm - 0.00 in   Overcast
5:53 AM 48.0 °F 45.0 °F 89% 29.81 in 10.0 mi South 3.5 mph - N/A   Overcast
6:53 AM 48.0 °F 45.0 °F 89% 29.81 in 10.0 mi ESE 3.5 mph - N/A   Overcast
7:53 AM 48.0 °F 45.0 °F 89% 29.81 in 10.0 mi ENE 4.6 mph - N/A   Overcast
8:53 AM 48.9 °F 45.0 °F 86% 29.82 in 7.0 mi NE 4.6 mph - N/A   Overcast
9:53 AM 50.0 °F 45.0 °F 83% 29.81 in 7.0 mi East 8.1 mph - N/A   Overcast
10:53 AM 50.0 °F 45.0 °F 83% 29.81 in 10.0 mi ENE 3.5 mph - N/A   Overcast
11:35 AM 53.1 °F 45.0 °F 74% 29.78 in 10.0 mi ESE 5.8 mph - N/A   Mostly Cloudy
11:53 AM 54.0 °F 45.0 °F 72% 29.80 in 10.0 mi ENE 4.6 mph - N/A   Mostly Cloudy
12:53 PM 55.9 °F 45.0 °F 67% 29.79 in 10.0 mi Calm Calm - N/A   Scattered Clouds
1:53 PM 57.0 °F 45.0 °F 64% 29.77 in 10.0 mi SSE 6.9 mph - N/A   Scattered Clouds
2:53 PM 60.1 °F 41.0 °F 49% 29.76 in 10.0 mi SSW 4.6 mph - N/A   Scattered Clouds
3:53 PM 60.1 °F 41.0 °F 49% 29.74 in 10.0 mi Calm Calm - N/A   Scattered Clouds
4:53 PM 62.1 °F 42.1 °F 48% 29.73 in 10.0 mi SE 4.6 mph - N/A   Scattered Clouds
5:19 PM 62.1 °F 39.9 °F 44% 29.71 in 10.0 mi Variable 3.5 mph - N/A   Scattered Clouds
5:53 PM 62.1 °F 39.9 °F 44% 29.72 in 10.0 mi West 4.6 mph - N/A   Mostly Cloudy
6:53 PM 61.0 °F 39.0 °F 44% 29.71 in 10.0 mi Calm Calm - N/A   Mostly Cloudy
7:53 PM 62.1 °F 39.0 °F 43% 29.71 in 10.0 mi Calm Calm - N/A   Scattered Clouds
8:53 PM 57.9 °F 45.0 °F 62% 29.71 in 10.0 mi Calm Calm - N/A   Scattered Clouds
9:53 PM 53.1 °F 45.0 °F 74% 29.71 in 10.0 mi West 3.5 mph - N/A   Scattered Clouds
10:53 PM 50.0 °F 43.0 °F 77% 29.71 in 10.0 mi Calm Calm - N/A   Scattered Clouds
11:53 PM 50.0 °F 39.9 °F 68% 29.71 in 10.0 mi NNW 4.6 mph - N/A   Partly Cloudy